Hourly Data Report for October 05, 2013

All times are specified in Local Standard Time (LST). Add 1 hour to adjust for Daylight Saving Time where and when it is observed.

POND INLET A
NUNAVUT

72°41'22.000" N
77°58'08.000" W
61.60 m
2403206
71095
YIO

Download Data

Hourly Data (October 2013)
Hourly Data Report for October 5, 2013
Temp Definition
°C
Dew Point Temp Definition
°C
Rel Hum Definition
%
Wind Dir Definition
10's deg

Wind Spd Definition
km/h
Visibility Definition
km
Stn Press Definition
kPa
Hmdx Definition


Wind Chill Definition


Weather Definition


TIME
00:00 Legend Double Dagger -8.5 -11.5 79 16 21 16.1 101.19   -16 LegendNANA
01:00 Legend Double Dagger -8.6 -11.1 82 17 17 16.1 101.20   -15 LegendNANA
02:00 Legend Double Dagger -9.7 -12.4 81 17 22 16.1 101.20   -18 LegendNANA
03:00 Legend Double Dagger -7.4 -11.4 73 25 28 16.1 101.19   -16 LegendNANA
04:00 Legend Double Dagger -6.9 -10.7 75 25 39 16.1 101.17   -17 LegendNANA
05:00 Legend Double Dagger -7.0 -10.5 76 26 22 16.1 101.18   -14 LegendNANA
06:00 Legend Double Dagger -7.0 -11.2 72 26 24 16.1 101.17   -15 LegendNANA
07:00 Legend Double Dagger -6.9 -11.0 73 25 21 16.1 101.15   -14 LegendNANA
08:00 Legend Double Dagger -6.6 -11.0 71 25 21 11.3 101.13   -14 LegendNANA
09:00 Legend Double Dagger -6.4 -11.9 65 26 21 16.1 101.09   -13 LegendNANA
10:00 Legend Double Dagger -6.6 -11.4 69 28 24 16.1 101.06   -14 LegendNANA
11:00 Legend Double Dagger -6.6 -11.3 70 27 22 16.1 101.03   -14 LegendNANA
12:00 Legend Double Dagger -6.6 -12.3 64 28 22 16.1 101.03   -14 LegendNANA
13:00 Legend Double Dagger -6.5 -12.0 65 28 22 11.3 101.03   -14 LegendNANA
14:00 Legend Double Dagger -6.6 -12.5 63 28 22 11.3 101.04   -14 LegendNANA
15:00 Legend Double Dagger -6.6 -12.1 65 27 24 16.1 101.03   -14 LegendNANA
16:00 Legend Double Dagger -6.7 -12.6 63 28 21 16.1 101.04   -14 LegendNANA
17:00 Legend Double Dagger -6.8 -12.4 65 28 18 16.1 101.04   -13 LegendNANA
18:00 Legend Double Dagger -6.7 -12.0 66 27 18 16.1 101.03   -13 LegendNANA
19:00 Legend Double Dagger -6.6 -11.8 67 27 17 16.1 101.03   -13 LegendNANA
20:00 Legend Double Dagger -6.6 -12.5 63 29 17 16.1 101.02   -13 LegendNANA
21:00 Legend Double Dagger -6.8 -13.4 60 28 21 16.1 101.01   -14 LegendNANA
22:00 Legend Double Dagger -6.7 -12.4 64 28 17 16.1 101.01   -13 LegendNANA
23:00 Legend Double Dagger -6.7 -12.6 63 28 15 16.1 101.03   -13 LegendNANA

Notes on Data Quality.

Legend

  • E = Estimated
  • M = Missing
  • NA = Not Available
  • ‡ = Partner data that is not subject to review by the National Climate Archives
Date modified: